sat.trackr.live / text

‹ back to catalog

ONEWEB-0628

NORAD 55169 · 2023-004AF

PAYLOAD ACTIVE UNKNOWN

§ Identity

Operator
Country
UK
Launch date
2023-01-10
Launch site
AFETR
Launch vehicle
Mass (kg)
RCS (m²)

Purposes: comms

External: N2YO · Heavens-Above · Gunter

§ Orbital elements

Epoch: 2026-05-25T01:50:06.290880Z

Period
109.72 min
Inclination
87.8959°
Eccentricity
0.0002463
Mean motion
13.12443539 rev/d
Perigee alt
1,211.9 km
Apogee alt
1,215.6 km
Semi-major
7,591.9 km
B*
-8.9523e-4
RAAN
355.2489°
Arg perigee
91.3779°
Mean anomaly
268.7632°
Rev number
16,500

§ Raw data

ONEWEB-06281 55169U 23004AF  26145.07646170 -.00000309  00000+0 -89523-3 0  99972 55169  87.8959 355.2489 0002463  91.3779 268.7632 13.12443539165002

JSON: /api/v1/satellites/55169 · /tle

For live sub-satellite position, see the globe view (requires WebGL).

§ Visibility from observer

Set your observer location to see the next 7 days of passes ≥ 10°. The values pass through the URL so the page stays shareable.

No JS? Fill the form by hand. The geolocation button needs JavaScript.